FW7298 Weather Reports


time (UTC)temp
C
wind
direction
speed
KPH
gust
KPH
rain 1hr
cm
rain 24hr
cm
rain mn
cm
humidity
%
barometer
mb
20260510120525 14 127 1.6 1.6 0.00 0.00 0.00 93 1014.0
20260510120021 13 70 0.0 1.6 0.00 0.00 0.00 94 1014.0
20260510115518 13 2 0.0 1.6 0.00 0.00 0.00 94 1013.8
20260510115014 13 71 0.0 0.0 0.00 0.00 0.00 95 1013.8
20260510114511 13 19 0.0 0.0 0.00 0.00 0.00 95 1013.8
20260510114007 12 14 0.0 0.0 0.00 0.00 0.00 95 1013.5
20260510113502 12 359 0.0 0.0 0.00 0.00 0.00 95 1013.9
20260510113000 12 315 1.6 1.6 0.00 0.00 0.00 95 1013.4
20260510112457 12 334 0.0 0.0 0.00 0.00 0.00 95 1013.3
20260510111953 12 336 0.0 0.0 0.00 0.00 0.00 95 1013.5
20260510111449 11 0 0.0 0.0 0.00 0.00 0.00 95 1013.4
20260510110945 11 343 0.0 0.0 0.00 0.00 0.00 95 1013.3
20260510110442 11 356 0.0 0.0 0.00 0.00 0.00 95 1013.2
20260510105937 10 24 0.0 0.0 0.00 0.00 0.00 95 1013.3
20260510105433 10 26 0.0 0.0 0.00 0.00 0.00 95 1013.2
20260510104928 10 54 0.0 0.0 0.00 0.00 0.00 95 1013.0
20260510104425 10 46 0.0 0.0 0.00 0.00 0.00 95 1013.2
20260510103922 10 47 0.0 0.0 0.00 0.00 0.00 95 1012.8
20260510103420 10 37 0.0 0.0 0.00 0.00 0.00 95 1012.9
20260510102914 10 50 0.0 0.0 0.00 0.00 0.00 95 1012.7
20260510102410 10 36 0.0 0.0 0.00 0.00 0.00 95 1012.7
20260510101908 10 36 0.0 0.0 0.00 0.00 0.00 95 1012.8
20260510101406 10 37 0.0 0.0 0.00 0.00 0.00 95 1012.8
20260510100903 10 37 0.0 0.0 0.00 0.00 0.00 95 1012.7
20260510100400 10 43 0.0 0.0 0.00 0.00 0.00 95 1012.5
20260510095856 11 36 0.0 0.0 0.00 0.00 0.00 95 1012.5
20260510095350 10 26 0.0 0.0 0.00 0.00 0.00 95 1012.7
20260510094850 11 25 0.0 0.0 0.00 0.00 0.00 95 1012.4
20260510094345 11 13 0.0 0.0 0.00 0.00 0.00 95 1012.4
20260510093842 11 11 0.0 0.0 0.00 0.00 0.00 95 1012.4
20260510093338 11 11 0.0 0.0 0.00 0.00 0.00 95 1012.5
20260510092834 11 13 0.0 0.0 0.00 0.00 0.00 95 1012.4
20260510092331 11 13 0.0 0.0 0.00 0.00 0.00 95 1012.6
20260510091826 11 21 0.0 0.0 0.00 0.00 0.00 95 1012.5
20260510091324 11 17 0.0 0.0 0.00 0.00 0.00 95 1012.6
20260510090820 11 16 0.0 0.0 0.00 0.00 0.00 95 1012.3
20260510090317 11 14 0.0 0.0 0.00 0.00 0.00 95 1012.5
20260510085812 11 7 0.0 0.0 0.00 0.00 0.00 95 1012.5
20260510085307 11 354 0.0 0.0 0.00 0.00 0.00 94 1012.5
20260510084803 11 344 0.0 0.0 0.00 0.00 0.00 94 1012.3
20260510084300 11 353 0.0 0.0 0.00 0.00 0.00 95 1012.0
20260510083757 11 351 0.0 0.0 0.00 0.00 0.00 95 1012.0
20260510083254 11 355 0.0 0.0 0.00 0.00 0.00 95 1012.1
20260510082749 11 359 0.0 0.0 0.00 0.00 0.00 95 1012.0
20260510082246 11 358 0.0 0.0 0.00 0.00 0.00 95 1011.7
20260510081745 11 330 0.0 1.6 0.00 0.00 0.00 95 1011.9
20260510081241 11 315 1.6 1.6 0.00 0.00 0.00 95 1011.8
20260510080737 11 2 0.0 0.0 0.00 0.00 0.00 95 1011.8
20260510080232 11 8 0.0 0.0 0.00 0.00 0.00 95 1011.6
20260510075729 11 3 0.0 0.0 0.00 0.00 0.00 95 1011.7
20260510075227 11 1 0.0 0.0 0.00 0.00 0.00 95 1011.8
20260510074724 11 353 0.0 0.0 0.00 0.00 0.00 95 1011.7
20260510074220 11 321 1.6 1.6 0.00 0.00 0.00 94 1011.6
20260510073717 11 349 1.6 1.6 0.00 0.00 0.00 94 1011.7
20260510073212 11 355 0.0 0.0 0.00 0.00 0.00 94 1011.5
20260510072708 11 18 0.0 0.0 0.00 0.00 0.00 94 1011.5
20260510072205 11 83 0.0 0.0 0.00 0.00 0.00 94 1011.4
20260510071702 11 18 0.0 0.0 0.00 0.00 0.00 94 1011.3
20260510071159 11 16 0.0 0.0 0.00 0.00 0.00 94 1011.4
20260510070656 11 16 0.0 0.0 0.00 0.00 0.00 94 1011.3
20260510070154 11 12 0.0 0.0 0.00 0.00 0.00 94 1011.0
20260510065649 11 349 1.6 1.6 0.00 0.00 0.00 94 1010.8
20260510065145 11 19 0.0 0.0 0.00 0.00 0.00 94 1011.1
20260510064642 11 20 0.0 0.0 0.00 0.00 0.00 94 1011.2
20260510064139 11 19 0.0 0.0 0.00 0.00 0.00 94 1011.0
20260510063636 11 48 0.0 0.0 0.00 0.00 0.00 94 1010.7
20260510063133 12 48 0.0 0.0 0.00 0.00 0.00 94 1010.8
20260510062628 12 52 0.0 0.0 0.00 0.00 0.00 94 1011.2
20260510062124 12 38 0.0 0.0 0.00 0.00 0.00 94 1010.9
20260510061620 12 36 0.0 0.0 0.00 0.00 0.00 94 1010.9
20260510061118 12 18 0.0 0.0 0.00 0.00 0.00 93 1010.9
20260510060614 12 25 0.0 0.0 0.00 0.00 0.00 93 1011.0
20260510060110 12 354 0.0 0.0 0.00 0.00 0.00 93 1011.3
20260510055606 12 26 0.0 0.0 0.00 0.00 0.00 93 1011.0
20260510055104 12 26 0.0 0.0 0.00 0.00 0.00 93 1011.0
20260510054600 12 28 0.0 0.0 0.00 0.00 0.00 93 1011.0
20260510054055 12 31 0.0 0.0 0.00 0.00 0.00 93 1011.1
20260510053555 12 32 0.0 0.0 0.00 0.00 0.00 93 1011.0
20260510053052 12 26 0.0 0.0 0.00 0.00 0.00 93 1011.0
20260510052543 12 25 0.0 0.0 0.00 0.00 0.00 93 1011.2
20260510052039 12 25 0.0 0.0 0.00 0.00 0.00 92 1011.1
20260510051534 12 25 0.0 0.0 0.00 0.00 0.00 92 1010.9
20260510051031 12 25 0.0 0.0 0.00 0.00 0.00 92 1010.9
20260510050529 13 24 0.0 0.0 0.00 0.00 0.00 92 1011.0
20260510050026 13 24 0.0 0.0 0.00 0.00 0.00 92 1010.9
20260510045523 13 24 0.0 0.0 0.00 0.00 0.00 92 1010.8
20260510045018 13 24 0.0 0.0 0.00 0.00 0.00 91 1010.9
20260510044516 13 35 0.0 0.0 0.00 0.00 0.00 91 1010.9
20260510044013 13 38 0.0 0.0 0.00 0.00 0.00 91 1011.0
20260510043508 13 38 0.0 0.0 0.00 0.00 0.00 91 1010.8
20260510043003 13 38 0.0 0.0 0.00 0.00 0.00 91 1010.9
20260510042458 13 37 0.0 0.0 0.00 0.00 0.00 91 1010.8
20260510041953 13 29 0.0 0.0 0.00 0.00 0.00 91 1011.0
20260510041450 13 24 0.0 0.0 0.00 0.00 0.00 91 1010.8
20260510040948 13 21 0.0 0.0 0.00 0.00 0.00 90 1010.8
20260510040444 13 21 0.0 0.0 0.00 0.00 0.00 90 1011.1
20260510035940 13 3 0.0 0.0 0.00 0.00 0.00 90 1010.9
20260510035436 13 356 0.0 0.0 0.00 0.00 0.00 90 1011.0
20260510034931 13 333 0.0 0.0 0.00 0.00 0.00 90 1010.9
20260510034430 13 325 0.0 0.0 0.00 0.00 0.00 90 1011.0
20260510033926 14 354 0.0 0.0 0.00 0.00 0.00 89 1011.0
20260510033422 14 21 0.0 0.0 0.00 0.00 0.00 89 1010.9
20260510032919 14 40 0.0 0.0 0.00 0.00 0.00 88 1010.8
20260510032415 14 50 0.0 0.0 0.00 0.00 0.00 88 1010.7
20260510031911 15 37 0.0 0.0 0.00 0.00 0.00 88 1010.6
20260510031406 15 37 0.0 0.0 0.00 0.00 0.00 88 1010.6
20260510030901 15 36 0.0 0.0 0.00 0.00 0.00 87 1010.7
20260510030358 15 36 0.0 0.0 0.00 0.00 0.00 87 1010.7
20260510025855 15 35 0.0 0.0 0.00 0.00 0.00 87 1010.8
20260510025353 15 36 0.0 0.0 0.00 0.00 0.00 86 1010.7
20260510024850 15 36 0.0 0.0 0.00 0.00 0.00 85 1010.6
20260510024346 15 36 0.0 0.0 0.00 0.00 0.00 85 1010.5
20260510023842 15 35 0.0 0.0 0.00 0.00 0.00 85 1010.4
20260510023339 15 34 0.0 0.0 0.00 0.00 0.00 85 1010.6
20260510022837 15 21 0.0 0.0 0.00 0.00 0.00 84 1010.2
20260510022335 15 21 0.0 0.0 0.00 0.00 0.00 84 1010.4
20260510021834 16 20 0.0 0.0 0.00 0.00 0.00 83 1010.4
20260510021333 16 21 0.0 0.0 0.00 0.00 0.00 83 1010.3
20260510020828 16 20 0.0 0.0 0.00 0.00 0.00 82 1010.5
20260510020323 16 35 0.0 0.0 0.00 0.00 0.00 82 1010.3
20260510015819 16 46 0.0 0.0 0.00 0.00 0.00 81 1010.2
20260510015315 16 36 0.0 0.0 0.00 0.00 0.00 81 1010.0
20260510014810 16 36 0.0 0.0 0.00 0.00 0.00 81 1010.1
20260510014308 16 34 0.0 0.0 0.00 0.00 0.00 81 1009.8
20260510013804 16 33 0.0 0.0 0.00 0.00 0.00 81 1010.0
20260510013300 17 33 0.0 0.0 0.00 0.00 0.00 80 1009.8
20260510012755 17 62 0.0 0.0 0.00 0.00 0.00 79 1009.6
20260510012250 17 63 0.0 0.0 0.00 0.00 0.00 79 1009.7
20260510011749 17 65 0.0 0.0 0.00 0.00 0.00 79 1009.6
20260510011245 17 64 0.0 0.0 0.00 0.00 0.00 79 1009.6
20260510010742 17 65 0.0 0.0 0.00 0.00 0.00 79 1009.5
20260510010239 17 65 0.0 0.0 0.00 0.00 0.00 79 1009.5
20260510005736 17 63 0.0 0.0 0.00 0.00 0.00 79 1009.4
20260510005232 17 63 0.0 0.0 0.00 0.00 0.00 78 1009.3
20260510004730 17 63 0.0 0.0 0.00 0.00 0.00 77 1009.3
20260510004227 17 64 0.0 0.0 0.00 0.00 0.00 76 1009.2
20260510003725 17 65 0.0 0.0 0.00 0.00 0.00 75 1009.2
20260510003221 18 65 0.0 0.0 0.00 0.00 0.00 74 1009.3
20260510002719 18 65 0.0 0.0 0.00 0.00 0.00 74 1009.2
20260510002218 18 65 0.0 0.0 0.00 0.00 0.00 73 1009.1
20260510001714 18 65 0.0 0.0 0.00 0.00 0.00 72 1009.1
20260510001213 19 64 0.0 0.0 0.00 0.00 0.00 71 1009.0
20260510000708 19 64 0.0 0.0 0.00 0.00 0.00 71 1009.0
20260510000205 20 64 0.0 0.0 0.00 0.00 0.00 68 1008.9
20260509235702 20 64 0.0 0.0 0.00 0.00 0.00 67 1008.8
20260509235158 20 65 0.0 0.0 0.00 0.00 0.00 66 1008.8
20260509234655 20 65 0.0 0.0 0.00 0.00 0.00 65 1008.8
20260509234152 20 65 0.0 0.0 0.00 0.00 0.00 65 1008.7
20260509233650 21 65 0.0 0.0 0.00 0.00 0.00 64 1009.0
20260509233147 21 65 0.0 0.0 0.00 0.00 0.00 63 1008.8
20260509232643 21 65 0.0 0.0 0.00 0.00 0.00 63 1008.9
20260509232140 21 65 0.0 0.0 0.00 0.00 0.00 62 1008.7
20260509231637 21 65 0.0 0.0 0.00 0.00 0.00 62 1008.7
20260509231134 22 65 0.0 0.0 0.00 0.00 0.00 61 1008.8
20260509230631 22 64 0.0 0.0 0.00 0.00 0.00 61 1008.5
20260509230128 22 64 0.0 0.0 0.00 0.00 0.00 61 1008.7
20260509225624 22 65 0.0 0.0 0.00 0.00 0.00 60 1008.5
20260509225119 22 64 0.0 0.0 0.00 0.00 0.00 60 1008.7
20260509224615 22 64 0.0 0.0 0.00 0.00 0.00 60 1008.7
20260509224112 22 63 0.0 0.0 0.00 0.00 0.00 59 1008.8
20260509223609 22 62 0.0 0.0 0.00 0.00 0.00 59 1008.9
20260509223107 22 60 0.0 0.0 0.00 0.00 0.00 59 1008.7
20260509222602 22 60 0.0 0.0 0.00 0.00 0.00 59 1008.9
20260509222059 22 60 0.0 0.0 0.00 0.00 0.00 57 1008.9
20260509221554 22 60 0.0 0.0 0.00 0.00 0.00 57 1008.9
20260509221050 22 60 0.0 0.0 0.00 0.00 0.00 57 1009.1
20260509220546 22 62 0.0 0.0 0.00 0.00 0.00 57 1008.8
20260509220043 22 36 0.0 1.6 0.00 0.00 0.00 56 1009.0
20260509215538 22 34 0.0 0.0 0.00 0.00 0.00 56 1008.8
20260509215036 22 35 0.0 0.0 0.00 0.00 0.00 55 1008.9
20260509214533 23 33 0.0 0.0 0.00 0.00 0.00 55 1008.8
20260509214030 22 58 1.6 3.2 0.00 0.00 0.00 54 1008.7
20260509213526 23 129 1.6 1.6 0.00 0.00 0.00 55 1008.8
20260509213023 23 51 0.0 0.0 0.00 0.00 0.00 58 1008.7
20260509212520 22 79 0.0 0.0 0.00 0.00 0.00 58 1008.6
20260509212017 23 41 0.0 0.0 0.00 0.00 0.00 58 1008.5
20260509211512 23 11 0.0 0.0 0.00 0.00 0.00 57 1008.5
20260509211010 23 43 0.0 0.0 0.00 0.00 0.00 56 1008.8
20260509210506 23 11 0.0 0.0 0.00 0.00 0.00 55 1008.6
20260509210003 23 44 0.0 0.0 0.00 0.00 0.00 57 1008.7
20260509205456 23 312 1.6 1.6 0.00 0.00 0.00 56 1008.5
20260509204952 23 125 1.6 1.6 0.00 0.00 0.00 57 1008.4
20260509204449 23 11 3.2 3.2 0.00 0.00 0.00 55 1008.5
20260509203945 23 331 4.8 4.8 0.00 0.00 0.00 56 1008.6
20260509203441 23 45 0.0 1.6 0.00 0.00 0.00 57 1008.6
20260509202939 23 304 4.8 4.8 0.00 0.00 0.00 54 1008.4
20260509202435 23 133 0.0 1.6 0.00 0.00 0.00 55 1008.7
20260509201930 23 336 1.6 1.6 0.00 0.00 0.00 55 1008.7
20260509201425 23 324 1.6 3.2 0.00 0.00 0.00 54 1008.5
20260509200922 23 23 0.0 0.0 0.00 0.00 0.00 57 1008.9
20260509200417 22 81 0.0 1.6 0.00 0.00 0.00 59 1008.7
20260509195914 22 95 1.6 3.2 0.00 0.00 0.00 59 1008.9
20260509195409 22 148 3.2 3.2 0.00 0.00 0.00 59 1009.2
20260509194908 22 128 1.6 3.2 0.00 0.00 0.00 61 1009.2
20260509194405 22 124 0.0 1.6 0.00 0.00 0.00 61 1009.3
20260509193902 22 63 0.0 1.6 0.00 0.00 0.00 61 1009.4
20260509193401 22 226 1.6 3.2 0.00 0.00 0.00 60 1009.4
20260509192858 22 52 0.0 1.6 0.00 0.00 0.00 61 1009.6
20260509192354 22 13 3.2 3.2 0.00 0.00 0.00 59 1009.8
20260509191849 21 355 3.2 3.2 0.00 0.00 0.00 62 1009.5
20260509191345 22 20 1.6 1.6 0.00 0.00 0.00 61 1009.8
20260509190842 22 62 0.0 0.0 0.00 0.00 0.00 60 1009.7
20260509190338 22 149 1.6 1.6 0.00 0.00 0.00 61 1009.7
20260509185836 22 37 1.6 1.6 0.00 0.00 0.00 59 1009.7
20260509185332 21 6 6.4 8.0 0.00 0.00 0.00 59 1010.0
20260509184830 21 203 1.6 1.6 0.00 0.00 0.00 59 1009.8
20260509184327 21 311 0.0 0.0 0.00 0.00 0.00 61 1009.9
20260509183823 21 327 1.6 1.6 0.00 0.00 0.00 61 1009.9
20260509183318 21 295 1.6 3.2 0.00 0.00 0.00 61 1010.4
20260509182814 21 331 8.0 11.3 0.00 0.00 0.00 60 1010.1
20260509182311 21 105 0.0 0.0 0.00 0.00 0.00 63 1010.5
20260509181809 21 351 1.6 1.6 0.00 0.00 0.00 63 1010.4
20260509181306 21 236 1.6 1.6 0.00 0.00 0.00 62 1010.4
20260509180804 21 358 0.0 0.0 0.00 0.00 0.00 63 1010.5
20260509180300 20 80 0.0 0.0 0.00 0.00 0.00 62 1010.5
20260509175756 20 85 0.0 0.0 0.00 0.00 0.00 65 1010.7
20260509175253 20 119 0.0 0.0 0.00 0.00 0.00 63 1010.7
20260509174749 20 9 4.8 4.8 0.00 0.00 0.00 62 1010.7
20260509174244 20 357 3.2 8.0 0.00 0.00 0.00 63 1010.8
20260509173740 20 314 3.2 8.0 0.00 0.00 0.00 62 1010.9
20260509173236 20 28 1.6 4.8 0.00 0.00 0.00 62 1010.9
20260509172732 20 343 0.0 1.6 0.00 0.00 0.00 62 1011.0
20260509172229 20 137 0.0 0.0 0.00 0.00 0.00 63 1010.7
20260509171724 20 60 0.0 1.6 0.00 0.00 0.00 61 1011.0
20260509171221 21 41 0.0 1.6 0.00 0.00 0.00 59 1011.0
20260509170718 21 31 0.0 1.6 0.00 0.00 0.00 59 1010.9
20260509170214 21 219 0.0 0.0 0.00 0.00 0.00 59 1010.8
20260509165712 21 294 3.2 4.8 0.00 0.00 0.00 59 1010.7
20260509165208 21 215 1.6 3.2 0.00 0.00 0.00 59 1010.9
20260509164704 21 184 0.0 1.6 0.00 0.00 0.00 59 1011.0
20260509164200 20 244 3.2 3.2 0.00 0.00 0.00 60 1011.1
20260509163657 20 165 0.0 1.6 0.00 0.00 0.00 61 1011.2
20260509163153 20 159 0.0 0.0 0.00 0.00 0.00 61 1011.0
20260509162651 20 71 1.6 3.2 0.00 0.00 0.00 62 1011.1
20260509162146 20 99 0.0 0.0 0.00 0.00 0.00 61 1011.1
20260509161643 20 229 1.6 1.6 0.00 0.00 0.00 62 1011.0
20260509161138 20 319 4.8 4.8 0.00 0.00 0.00 60 1011.2
20260509160634 20 96 1.6 3.2 0.00 0.00 0.00 61 1011.1
20260509160129 20 16 4.8 4.8 0.00 0.00 0.00 60 1011.2
20260509155626 20 162 0.0 1.6 0.00 0.00 0.00 61 1011.1
20260509155122 20 45 4.8 4.8 0.00 0.00 0.00 60 1011.3
20260509154618 20 334 0.0 0.0 0.00 0.00 0.00 61 1011.3
20260509154115 20 9 0.0 1.6 0.00 0.00 0.00 61 1011.5
20260509153612 20 11 1.6 3.2 0.00 0.00 0.00 61 1011.5
20260509153109 19 199 0.0 0.0 0.00 0.00 0.00 61 1011.7
20260509152605 20 268 1.6 1.6 0.00 0.00 0.00 61 1011.5
20260509152103 20 274 0.0 1.6 0.00 0.00 0.00 61 1011.5
20260509151558 20 162 1.6 1.6 0.00 0.00 0.00 60 1011.4
20260509151057 20 31 1.6 1.6 0.00 0.00 0.00 61 1011.5
20260509150554 19 174 0.0 0.0 0.00 0.00 0.00 63 1011.4
20260509150052 18 15 3.2 3.2 0.00 0.00 0.00 63 1011.7
20260509145547 18 344 0.0 1.6 0.00 0.00 0.00 64 1011.8
20260509145043 18 92 0.0 0.0 0.00 0.00 0.00 66 1011.9
20260509144540 17 27 0.0 0.0 0.00 0.00 0.00 66 1011.6
20260509144037 18 57 0.0 0.0 0.00 0.00 0.00 66 1011.9
20260509143534 17 357 1.6 3.2 0.00 0.00 0.00 66 1012.0
20260509143032 17 145 0.0 1.6 0.00 0.00 0.00 67 1011.9
20260509142527 17 78 0.0 1.6 0.00 0.00 0.00 67 1012.2
20260509142023 16 11 1.6 1.6 0.00 0.00 0.00 67 1012.3
20260509141520 16 24 3.2 4.8 0.00 0.00 0.00 68 1012.1
20260509141017 16 40 0.0 0.0 0.00 0.00 0.00 69 1012.2
20260509140513 16 125 1.6 1.6 0.00 0.00 0.00 69 1012.1
20260509140011 16 143 1.6 3.2 0.00 0.00 0.00 68 1012.4
20260509135508 16 51 3.2 3.2 0.00 0.00 0.00 68 1012.4
20260509135006 16 127 0.0 1.6 0.00 0.00 0.00 67 1012.5
20260509134503 16 14 0.0 1.6 0.00 0.00 0.00 68 1012.2
20260509134000 16 16 0.0 1.6 0.00 0.00 0.00 69 1012.2
20260509133456 15 30 0.0 1.6 0.00 0.00 0.00 69 1012.3
20260509132954 15 357 1.6 3.2 0.00 0.00 0.00 69 1012.4
20260509132453 15 86 0.0 1.6 0.00 0.00 0.00 69 1012.2
20260509131949 15 48 1.6 3.2 0.00 0.00 0.00 70 1012.4
20260509131447 15 350 3.2 4.8 0.00 0.00 0.00 69 1012.4
20260509130943 15 45 0.0 0.0 0.00 0.00 0.00 70 1012.4
20260509130438 15 93 0.0 0.0 0.00 0.00 0.00 70 1012.4
20260509125936 15 115 0.0 0.0 0.00 0.00 0.00 71 1012.4
20260509125432 15 101 1.6 1.6 0.00 0.00 0.00 70 1012.4
20260509124928 15 239 1.6 1.6 0.00 0.00 0.00 71 1012.6
20260509124426 15 94 0.0 0.0 0.00 0.00 0.00 71 1012.5
20260509123923 14 38 0.0 1.6 0.00 0.00 0.00 71 1012.6
20260509123420 14 345 1.6 1.6 0.00 0.00 0.00 70 1012.6
20260509122916 14 46 0.0 1.6 0.00 0.00 0.00 71 1012.7
20260509122413 14 94 1.6 1.6 0.00 0.00 0.00 71 1012.4
20260509121910 14 20 0.0 0.0 0.00 0.00 0.00 72 1012.6
20260509121407 14 40 0.0 0.0 0.00 0.00 0.00 71 1012.5